www.pogodaiklimat.ru

ПОГОДА в Клинтоне, MO

  • Прогноз погоды в Клинтоне
  • Монитор погоды в Клинтоне
  • Климат в Клинтоне

АРХИВ ПОГОДЫ в Клинтоне

Время (UTC), дата Ветер
(напр.,м/с)
 
Видим.   Явления Облачность Т
(С)
Тd
(С)
f
(%)
Тe
(С)
Тes
(С)
Комфортность

P
(гПа)

Po
(гПа)
Тmin
(С)
Tmax
(С)
R
(мм)
SD
(см)
03:55 22.08   11 км  слабый дождь  10/8 960 м
[средняя] 
+22.0  +22.0  100  +29  +29  очень
душно 
  986.6         
04:15 22.08 ЮВ  13 км  слабый дождь  8/8 630 м  +22.0  +22.0  100  +29  +29  очень
душно 
  985.9         
04:35 22.08 В  14 км    10/10 690 м  +22.0  +22.0  100  +29  +29  очень
душно 
  985.9         
04:55 22.08   16 км    8/5 750 м
[средняя] 
+21.0  +21.0  100  +26  +26  душно    985.9         
05:15 22.08 В  16 км    8/0 2250 м
[средняя] 
+21.0  +21.0  100  +27  +27  душно    985.3         
05:35 22.08   16 км    8/2 1800 м
[средняя] 
+21.0  +21.0  100  +26  +26  душно    984.9         
05:55 22.08   16 км    8/2 1800 м
[средняя] 
+22.0  +22.0  100  +29  +29  очень
душно 
  984.9         
06:15 22.08   16 км  гроза  8/0 2250 м
[средняя] 
+22.0  +22.0  100  +29  +29  очень
душно 
  984.9         
06:35 22.08   16 км  гроза  8/0 2250 м
[средняя] 
+21.0  +21.0  100  +26  +26  душно    985.3         
06:55 22.08 З  11 км  гроза  8/5 1800 м
[средняя] 
+22.0  +22.0  100  +29  +29  очень
душно 
  986.6         
07:15 22.08 ЮЗ  4
{8} 
14 км  слабый дождь  10/5 360 м
[средняя] 
+21.0  +21.0  100  +26  +26  душно    986.2         
07:35 22.08 З  5
{7} 
10 км  слабый дождь  10/8 240 м
[средняя] 
+20.0  +20.0  100  +23  +23  комфорт    985.6         
07:55 22.08 ЮЗ  5 км  гроза, слабый дождь  10/10 960 м  +20.0  +20.0  100  +23  +23  комфорт    985.3         
08:15 22.08   6 км  гроза со слабым дождем  10/10 1020 м  +20.0  +20.0  100  +23  +23  комфорт             
08:35 22.08 ЮВ  5 км  гроза со слабым дождем  10/10 210 м  +20.0  +20.0  100  +24  +24  комфорт    985.6         
08:55 22.08 Ю  5 км  слабый дождь  10/10 180 м  +20.0  +20.0  100  +24  +24  комфорт    985.3         
09:15 22.08 С  6 км  слабый дождь  10/10 150 м  +20.0  +20.0  100  +24  +24  комфорт    985.9         
09:35 22.08 С  8 км  слабый дождь  10/10 120 м  +20.0  +20.0  100  +24  +24  комфорт    985.9         
09:55 22.08   10 км  слабый дождь  10/8 240 м
[средняя] 
+20.0  +20.0  100  +23  +23  комфорт    985.6         
10:15 22.08 ЮВ  8 км  слабый дождь  10/5 900 м
[средняя] 
+20.0  +20.0  100  +24  +24  комфорт    985.3         
10:35 22.08   14 км  слабый дождь  8/5 1500 м
[средняя] 
+20.0  +20.0  100  +23  +23  комфорт    985.6         
10:55 22.08 С  13 км    8/0 2100 м
[средняя] 
+20.0  +20.0  100  +24  +24  комфорт    985.6         
11:15 22.08 С  13 км    8/0 2850 м
[средняя] 
+20.0  +20.0  100  +24  +24  комфорт    985.6         
11:35 22.08   13 км    5/0 2850 м
[средняя] 
+20.0  +20.0  100  +23  +23  комфорт    985.9         
11:55 22.08 В  11 км    8/0 2850 м
[средняя] 
+20.0  +20.0  100  +24  +24  комфорт    985.9         
12:15 22.08 В  10 км  дымка  8/5 360 м
[средняя] 
+21.0  +21.0  100  +27  +27  душно    986.2         
12:55 22.08 ЮВ  13 км    10/8 150 м
[средняя] 
+22.0  +22.0  100  +29  +29  очень
душно 
  986.6         
13:35 22.08   14 км  слабый дождь  8/5 150 м
[средняя] 
+22.0  +22.0  100  +29  +31  очень
душно 
  986.6         
13:55 22.08   14 км  слабый дождь  8/8 180 м  +22.0  +22.0  100  +29  +30  очень
душно 
  986.9         
14:15 22.08   16 км  слабый дождь  10/10 180 м  +23.0  +22.0  94  +31  +31  очень
душно 
  986.9         
14:55 22.08 З  16 км    10/10 420 м  +24.0  +22.0  89  +31  +31  очень
душно 
  986.9         
15:15 22.08 ЮЗ  16 км    10/10 390 м  +24.0  +22.0  89  +31  +31  очень
душно 
  987.2         
15:35 22.08 ЮЗ  16 км    10/8 300 м
[средняя] 
+24.0  +22.0  89  +31  +32  очень
душно 
  986.9         
15:55 22.08 З  16 км    8/8 420 м
[средняя] 
+25.0  +22.0  83  +32  +35  очень
душно 
  986.9         
16:15 22.08   16 км    8/8 390 м  +25.0  +22.0  83  +32  +36  очень
душно 
  986.6         
16:55 22.08   16 км    8/8 570 м  +27.0  +22.0  74  +35  +39  очень
душно 
  985.9         
17:15 22.08 С  16 км    10/8 630 м
[средняя] 
+27.0  +22.0  74  +35  +36  очень
душно 
  985.6         
17:35 22.08 С  16 км    8/8 630 м
[средняя] 
+27.0  +22.0  74  +35  +38  очень
душно 
  985.6         
17:55 22.08 С  16 км    5/5 690 м  +28.0  +22.0  70  +36  +44  очень
душно 
  985.6         
18:35 22.08 С  16 км    2/0 2550 м
[средняя] 
+28.0  +22.0  70  +36  +52  опасность
солнечного
удара 
  985.3         
18:55 22.08   16 км    8/8 870 м  +28.0  +22.0  70  +36  +41  очень
душно 
  984.9         
19:15 22.08   16 км    8/8 810 м  +28.0  +22.0  70  +36  +40  очень
душно 
  984.9         
19:35 22.08 СВ  16 км    10/8 870 м
[средняя] 
+27.0  +23.0  79  +36  +37  очень
душно 
  984.9         
19:55 22.08 СВ  14 км  слабый дождь  10/8 870 м
[средняя] 
+26.0  +22.0  79  +34  +34  очень
душно 
  984.9         
20:15 22.08 В  16 км    8/8 780 м  +27.0  +22.0  74  +35  +37  очень
душно 
  984.9         
20:35 22.08 ЮВ  16 км    2/2 1050 м  +27.0  +23.0  79  +36  +43  очень
душно 
  984.9         
20:55 22.08 В  16 км    5/5 990 м
[средняя] 
+27.0  +22.0  74  +35  +39  очень
душно 
  984.9         
21:15 22.08 СВ  16 км    5/5 690 м  +27.0  +22.0  74  +35  +38  очень
душно 
  984.9         

 

Местоположение метеостанции Clinton Memopial Airport: широта 38.3566 долгота -93.6842 высота над уровнем моря 251 м.

В архиве по умолчанию представлена погода в Клинтоне за последние 1-2 суток. Обновление информации о фактической погоде в базе происходит ежечасно! Архивные данные за месяц целиком и за предыдущие месяцы Вы можете получить, выбрав интересующий диапазон дат из раскрывающегося списка и нажав кнопку "Ввод!".

Внимание! Архив погоды МЕТАР в базе сайта хранится не более 60 дней. Нет смысла пытаться выбрать более раннюю дату.

Внимание! Время в таблицах - всемирное. Для получения местного времени необходимо прибавить поправку, которая в Клинтоне равна -6 ч.

Ветер - указаны скорость ветра в м/с и направление, откуда дует ветер: С - северный, СВ - северо-восточный, В - восточный, ЮВ - юго-восточный, Ю - южный, ЮЗ - юго-западный, З - западный, СЗ - северо-западный.
Видимость - горизонтальная дальность видимости в метрах или километрах. При видимости от 1 до 10 км при отсутствии осадков обычно наблюдается дымка, при ухудшении видимости до 1 км и менее - туман. В сухую погоду видимость может ухудшаться дымом, пылью или мглою.
Атмосферные явления - указаны явления, наблюдавшиеся в указанный момент времени.
Облачность - указаны через наклонную черту верхняя и нижняя облачность в баллах и высота нижней границы облаков в метрах. Внимание: облачность, как и прочие метеорологические величины в США измеряются автоматическими метеостанциями. Указанные значения в баллах носят условный характер и показывают процент времени, в течение которого, в среднем, лазерный луч высотомера отражался от облаков обратно.
T - Температура воздуха - температура, измеренная на высоте 2 м над землей.
Td - Температура точки росы - температура, при понижении до которой содержащийся в воздухе водяной пар достигнет насыщения.
f - Относительная влажность воздуха - влажноcть воздуха, измеренная на высоте 2 м над землей.
Te - Эффективная температура - температура, которую ощущает одетый по сезону человек в тени. Характеристика душности погоды. При расчете учитывается влияние влажности воздуха и скорости ветра на теплоощущения человека.
Tes - Эффективная температура на солнце - температура, которую ощущает человек, с поправкой на солнечный нагрев. Характеристика знойности погоды. Зависит от высоты солнца над горизонтом, облачности и скорости ветра. Ночью, в пасмурную погоду, а также при ветре 12 м/с и более поправка равна нулю.
P - Атмосферное давление - приведенное к уровню моря атмосферное давление.
Po - Атмосферное давление - измеренное на уровне метеостанции атмосферное давление.
Tmin - Минимальная температура - минимум температуры воздуха на высоте 2 м над землей.
Tmax - Максимальная температура - максимум температуры воздуха на высоте 2 м над землей.
R - Количество осадков - Количество выпавших осадков за 3 или 6 часов, мм.
SD - Снежный покров - Высота снежного покрова, см.